NKS142 MDSD-KFLL

Flight info

Callsign NKS142
Flight time 2h 6m
Altitude 32000
Route MALVN2J MALVN DCT RUMFO DCT ZQA OLAHS3
Aircraft A321/M-SDE3FGHIRWY/LB1

Departure

Time 2026-05-03 20:15
Airport Las Américas International Airport (MDSD)

Arrival

Time 2026-05-03 22:21
Airport Fort Lauderdale Hollywood International Airport (KFLL)
Time Latitude Longitude Altitude Speed Heading
2026-05-03 20:15 18.34263 -69.71441 3919 ft 278 kts 257°
2026-05-03 20:15 18.33852 -69.73435 4612 ft 280 kts 255°
2026-05-03 20:15 18.33384 -69.75429 5247 ft 283 kts 254°
2026-05-03 20:15 18.33099 -69.77493 5831 ft 289 kts 272°
2026-05-03 20:16 18.33537 -69.79567 6378 ft 294 kts 295°
2026-05-03 20:16 18.34440 -69.81497 6915 ft 296 kts 297°
2026-05-03 20:16 18.35346 -69.83428 7481 ft 298 kts 296°
2026-05-03 20:16 18.36255 -69.85390 8087 ft 300 kts 296°
2026-05-03 20:17 18.37168 -69.87377 8667 ft 302 kts 295°
2026-05-03 20:17 18.38085 -69.89380 9202 ft 306 kts 295°
2026-05-03 20:17 18.39013 -69.91403 9790 ft 307 kts 295°
2026-05-03 20:17 18.39948 -69.93443 10209 ft 316 kts 295°
2026-05-03 20:18 18.40608 -69.94875 10283 ft 328 kts 295°
2026-05-03 20:18 18.41973 -69.97835 10444 ft 351 kts 295°
2026-05-03 20:18 18.43055 -70.00186 10749 ft 361 kts 295°
2026-05-03 20:18 18.44156 -70.02579 11230 ft 364 kts 295°
2026-05-03 20:19 18.45259 -70.04986 11756 ft 366 kts 295°
2026-05-03 20:19 18.46367 -70.07401 12265 ft 367 kts 295°
2026-05-03 20:19 18.47496 -70.09827 12797 ft 369 kts 298°
2026-05-03 20:19 18.48948 -70.12066 13306 ft 372 kts 310°
2026-05-03 20:20 18.50824 -70.13930 13806 ft 375 kts 323°
2026-05-03 20:20 18.53064 -70.15352 14247 ft 377 kts 333°
2026-05-03 20:20 18.55437 -70.16551 14677 ft 380 kts 333°
2026-05-03 20:20 18.57823 -70.17762 15116 ft 382 kts 333°
2026-05-03 20:21 18.60225 -70.18988 15541 ft 385 kts 332°
2026-05-03 20:21 18.62643 -70.20227 15972 ft 388 kts 332°
2026-05-03 20:21 18.65073 -70.21476 16431 ft 389 kts 332°
2026-05-03 20:21 18.67515 -70.22728 16875 ft 391 kts 332°
2026-05-03 20:22 18.69976 -70.23987 17318 ft 394 kts 332°
2026-05-03 20:22 18.72420 -70.25237 17727 ft 397 kts 332°
2026-05-03 20:22 18.74909 -70.26511 18180 ft 399 kts 332°
2026-05-03 20:22 18.77413 -70.27793 18577 ft 401 kts 332°
2026-05-03 20:23 18.79938 -70.29085 18943 ft 404 kts 332°
2026-05-03 20:23 18.82475 -70.30388 19307 ft 407 kts 332°
2026-05-03 20:23 18.85023 -70.31698 19685 ft 409 kts 332°
2026-05-03 20:23 18.87589 -70.33019 20029 ft 412 kts 332°
2026-05-03 20:24 18.90173 -70.34347 20406 ft 415 kts 332°
2026-05-03 20:24 18.92771 -70.35680 20761 ft 417 kts 332°
2026-05-03 20:24 18.95389 -70.37022 21100 ft 420 kts 332°
2026-05-03 20:24 18.98028 -70.38375 21465 ft 422 kts 332°
2026-05-03 20:25 19.00685 -70.39739 21780 ft 425 kts 332°
2026-05-03 20:25 19.03355 -70.41111 22092 ft 428 kts 333°
2026-05-03 20:25 19.06039 -70.42490 22427 ft 430 kts 333°
2026-05-03 20:25 19.08733 -70.43875 22750 ft 432 kts 333°
2026-05-03 20:26 19.11445 -70.45272 23019 ft 434 kts 333°
2026-05-03 20:26 19.14167 -70.46678 23326 ft 436 kts 333°
2026-05-03 20:26 19.16900 -70.48087 23612 ft 439 kts 333°
2026-05-03 20:26 19.19650 -70.49502 23834 ft 441 kts 333°
2026-05-03 20:27 19.22379 -70.50904 24109 ft 442 kts 333°
2026-05-03 20:27 19.25145 -70.52326 24368 ft 443 kts 333°
2026-05-03 20:27 19.27925 -70.53760 24611 ft 445 kts 333°
2026-05-03 20:27 19.30708 -70.55197 24883 ft 446 kts 333°
2026-05-03 20:28 19.33495 -70.56635 25141 ft 447 kts 333°
2026-05-03 20:28 19.36296 -70.58080 25384 ft 449 kts 333°
2026-05-03 20:28 19.39108 -70.59535 25665 ft 449 kts 333°
2026-05-03 20:28 19.40922 -70.60587 25826 ft 450 kts 327°
2026-05-03 20:29 19.43478 -70.62498 26040 ft 451 kts 322°
2026-05-03 20:29 19.46012 -70.64476 26298 ft 453 kts 323°
2026-05-03 20:29 19.48556 -70.66457 26577 ft 454 kts 322°
2026-05-03 20:29 19.51103 -70.68437 26824 ft 455 kts 322°
2026-05-03 20:30 19.53667 -70.70425 27070 ft 457 kts 323°
2026-05-03 20:30 19.56238 -70.72419 27334 ft 459 kts 322°
2026-05-03 20:30 19.58801 -70.74412 27599 ft 460 kts 322°
2026-05-03 20:30 19.61381 -70.76420 27841 ft 461 kts 322°
2026-05-03 20:31 19.63966 -70.78431 28072 ft 463 kts 322°
2026-05-03 20:31 19.66570 -70.80457 28323 ft 464 kts 322°
2026-05-03 20:31 19.69181 -70.82488 28544 ft 465 kts 322°
2026-05-03 20:31 19.71790 -70.84519 28769 ft 467 kts 322°
2026-05-03 20:32 19.74411 -70.86562 28992 ft 468 kts 322°
2026-05-03 20:32 19.77043 -70.88614 29240 ft 469 kts 322°
2026-05-03 20:32 19.79672 -70.90668 29459 ft 471 kts 322°
2026-05-03 20:32 19.82317 -70.92738 29678 ft 473 kts 322°
2026-05-03 20:33 19.84970 -70.94813 29909 ft 475 kts 322°
2026-05-03 20:33 19.87604 -70.96865 30133 ft 476 kts 322°
2026-05-03 20:33 19.90281 -70.98948 30376 ft 476 kts 322°
2026-05-03 20:33 19.92943 -71.01024 30693 ft 474 kts 322°
2026-05-03 20:34 19.95589 -71.03091 31011 ft 471 kts 322°
2026-05-03 20:34 19.98227 -71.05151 31340 ft 469 kts 322°
2026-05-03 20:34 20.00842 -71.07195 31652 ft 467 kts 322°
2026-05-03 20:34 20.03452 -71.09239 31931 ft 466 kts 322°
2026-05-03 20:35 20.06046 -71.11273 31991 ft 459 kts 322°
2026-05-03 20:35 20.11135 -71.15267 32004 ft 451 kts 322°
2026-05-03 20:36 20.16179 -71.19233 31999 ft 450 kts 322°
2026-05-03 20:36 20.21211 -71.23187 31999 ft 450 kts 322°
2026-05-03 20:37 20.26219 -71.27123 32002 ft 450 kts 322°
2026-05-03 20:37 20.31248 -71.31080 32004 ft 450 kts 322°
2026-05-03 20:38 20.36296 -71.35049 32007 ft 450 kts 322°
2026-05-03 20:38 20.41257 -71.39101 32014 ft 448 kts 315°
2026-05-03 20:39 20.45295 -71.44128 32013 ft 446 kts 307°
2026-05-03 20:39 20.49152 -71.49304 32013 ft 447 kts 307°
2026-05-03 20:40 20.53024 -71.54496 32017 ft 447 kts 307°
2026-05-03 20:40 20.56881 -71.59687 32017 ft 446 kts 307°
2026-05-03 20:41 20.60713 -71.64837 32016 ft 446 kts 307°
2026-05-03 20:41 20.64571 -71.70025 32017 ft 446 kts 307°
2026-05-03 20:42 20.68433 -71.75223 32019 ft 446 kts 307°
2026-05-03 20:42 20.72289 -71.80426 32021 ft 447 kts 307°
2026-05-03 20:43 20.76145 -71.85631 32021 ft 447 kts 307°
2026-05-03 20:43 20.79995 -71.90832 32021 ft 446 kts 307°
2026-05-03 20:44 20.83846 -71.96041 32027 ft 446 kts 306°
2026-05-03 20:44 20.87688 -72.01244 32025 ft 445 kts 306°
2026-05-03 20:45 20.91524 -72.06453 32024 ft 445 kts 306°
2026-05-03 20:45 20.95356 -72.11654 32023 ft 445 kts 306°
2026-05-03 20:46 20.99170 -72.16824 32030 ft 445 kts 306°
2026-05-03 20:46 21.03009 -72.22028 32031 ft 446 kts 306°
2026-05-03 20:47 21.06846 -72.27247 32032 ft 446 kts 306°
2026-05-03 20:47 21.10670 -72.32468 32033 ft 445 kts 306°
2026-05-03 20:48 21.14492 -72.37679 32032 ft 445 kts 306°
2026-05-03 20:48 21.18329 -72.42889 32034 ft 445 kts 306°
2026-05-03 20:49 21.22153 -72.48103 32037 ft 444 kts 306°
2026-05-03 20:49 21.25963 -72.53319 32035 ft 444 kts 306°
2026-05-03 20:50 21.29769 -72.58528 32032 ft 443 kts 306°
2026-05-03 20:50 21.33569 -72.63734 32030 ft 443 kts 306°
2026-05-03 20:51 21.37369 -72.68944 32032 ft 443 kts 306°
2026-05-03 20:51 21.41167 -72.74147 32030 ft 443 kts 306°
2026-05-03 20:52 21.44953 -72.79348 32031 ft 442 kts 306°
2026-05-03 20:52 21.48744 -72.84555 32029 ft 442 kts 306°
2026-05-03 20:53 21.52523 -72.89757 32026 ft 442 kts 306°
2026-05-03 20:53 21.56307 -72.94960 32031 ft 442 kts 306°
2026-05-03 20:54 21.60061 -73.00135 32037 ft 441 kts 305°
2026-05-03 20:54 21.65709 -73.07936 32035 ft 441 kts 305°
2026-05-03 20:55 21.69470 -73.13133 32035 ft 440 kts 305°
2026-05-03 20:55 21.73236 -73.18330 32039 ft 440 kts 305°
2026-05-03 20:56 21.76997 -73.23533 32039 ft 440 kts 305°
2026-05-03 20:56 21.80752 -73.28738 32039 ft 440 kts 305°
2026-05-03 20:57 21.84506 -73.33948 32040 ft 440 kts 305°
2026-05-03 20:57 21.88256 -73.39146 32043 ft 440 kts 305°
2026-05-03 20:58 21.92006 -73.44366 32046 ft 440 kts 305°
2026-05-03 20:58 21.95753 -73.49576 32056 ft 440 kts 305°
2026-05-03 20:59 21.99498 -73.54785 32054 ft 439 kts 305°
2026-05-03 20:59 22.03236 -73.59986 32051 ft 439 kts 304°
2026-05-03 21:00 22.06333 -73.64307 32050 ft 438 kts 304°
2026-05-03 21:00 22.10688 -73.70379 32050 ft 437 kts 304°
2026-05-03 21:01 22.14379 -73.75535 32050 ft 437 kts 304°
2026-05-03 21:01 22.18085 -73.80727 32046 ft 437 kts 304°
2026-05-03 21:02 22.21797 -73.85918 32045 ft 437 kts 304°
2026-05-03 21:02 22.25506 -73.91111 32045 ft 437 kts 304°
2026-05-03 21:03 22.29212 -73.96315 32045 ft 437 kts 304°
2026-05-03 21:03 22.32905 -74.01507 32059 ft 436 kts 304°
2026-05-03 21:04 22.36601 -74.06697 32054 ft 435 kts 304°
2026-05-03 21:04 22.40283 -74.11884 32053 ft 434 kts 304°
2026-05-03 21:05 22.43959 -74.17052 32051 ft 434 kts 304°
2026-05-03 21:05 22.47632 -74.22226 32050 ft 434 kts 304°
2026-05-03 21:06 22.51293 -74.27398 32049 ft 433 kts 304°
2026-05-03 21:06 22.54937 -74.32542 32047 ft 433 kts 304°
2026-05-03 21:07 22.58593 -74.37721 32049 ft 432 kts 304°
2026-05-03 21:07 22.62242 -74.42884 32048 ft 432 kts 304°
2026-05-03 21:08 22.65892 -74.48046 32045 ft 432 kts 304°
2026-05-03 21:08 22.69533 -74.53211 32055 ft 431 kts 303°
2026-05-03 21:09 22.73169 -74.58374 32052 ft 430 kts 303°
2026-05-03 21:09 22.76796 -74.63530 32048 ft 430 kts 303°
2026-05-03 21:10 22.80417 -74.68687 32043 ft 430 kts 303°
2026-05-03 21:10 22.84037 -74.73834 32041 ft 429 kts 303°
2026-05-03 21:11 22.87653 -74.78985 32039 ft 429 kts 303°
2026-05-03 21:11 22.91257 -74.84128 32036 ft 429 kts 303°
2026-05-03 21:12 22.94870 -74.89281 32032 ft 429 kts 303°
2026-05-03 21:12 22.98478 -74.94434 32031 ft 429 kts 303°
2026-05-03 21:13 23.02085 -74.99591 32030 ft 429 kts 303°
2026-05-03 21:13 23.05684 -75.04747 32052 ft 428 kts 303°
2026-05-03 21:14 23.09326 -75.09866 32056 ft 430 kts 308°
2026-05-03 21:14 23.13330 -75.14619 32057 ft 429 kts 308°
2026-05-03 21:15 23.17362 -75.19400 32055 ft 429 kts 308°
2026-05-03 21:15 23.21385 -75.24183 32040 ft 428 kts 308°
2026-05-03 21:16 23.25388 -75.28950 32034 ft 428 kts 308°
2026-05-03 21:16 23.29401 -75.33729 32038 ft 428 kts 308°
2026-05-03 21:17 23.32735 -75.37706 32038 ft 428 kts 308°
2026-05-03 21:17 23.37429 -75.43295 32047 ft 428 kts 308°
2026-05-03 21:18 23.41433 -75.48073 32052 ft 428 kts 307°
2026-05-03 21:18 23.45431 -75.52871 32051 ft 427 kts 307°
2026-05-03 21:19 23.49432 -75.57674 32047 ft 427 kts 307°
2026-05-03 21:19 23.53401 -75.62435 32044 ft 427 kts 307°
2026-05-03 21:20 23.57401 -75.67224 32050 ft 427 kts 307°
2026-05-03 21:20 23.61403 -75.72023 32046 ft 427 kts 307°
2026-05-03 21:21 23.65397 -75.76831 32050 ft 427 kts 307°
2026-05-03 21:21 23.69388 -75.81630 32050 ft 427 kts 307°
2026-05-03 21:22 23.73389 -75.86437 32062 ft 427 kts 307°
2026-05-03 21:22 23.77374 -75.91242 32058 ft 427 kts 307°
2026-05-03 21:23 23.80681 -75.95236 32056 ft 426 kts 307°
2026-05-03 21:23 23.84646 -76.00028 32052 ft 426 kts 307°
2026-05-03 21:24 23.88613 -76.04835 32046 ft 425 kts 307°
2026-05-03 21:24 23.92581 -76.09631 32045 ft 425 kts 307°
2026-05-03 21:25 23.96556 -76.14429 32046 ft 425 kts 307°
2026-05-03 21:25 24.00503 -76.19230 32048 ft 424 kts 306°
2026-05-03 21:26 24.04421 -76.23988 32048 ft 423 kts 307°
2026-05-03 21:26 24.08356 -76.28767 32045 ft 423 kts 306°
2026-05-03 21:27 24.12287 -76.33549 32043 ft 422 kts 306°
2026-05-03 21:27 24.16214 -76.38332 32043 ft 422 kts 306°
2026-05-03 21:28 24.20147 -76.43109 32039 ft 422 kts 307°
2026-05-03 21:28 24.24080 -76.47895 32042 ft 422 kts 306°
2026-05-03 21:29 24.28006 -76.52683 32051 ft 422 kts 306°
2026-05-03 21:29 24.31922 -76.57475 32053 ft 422 kts 306°
2026-05-03 21:30 24.35829 -76.62264 32045 ft 421 kts 306°
2026-05-03 21:30 24.39740 -76.67053 32043 ft 421 kts 306°
2026-05-03 21:31 24.43625 -76.71801 32062 ft 421 kts 306°
2026-05-03 21:31 24.47532 -76.76591 32059 ft 421 kts 306°
2026-05-03 21:32 24.51431 -76.81390 32050 ft 421 kts 306°
2026-05-03 21:32 24.55339 -76.86193 32047 ft 421 kts 306°
2026-05-03 21:33 24.59243 -76.90996 32051 ft 421 kts 306°
2026-05-03 21:33 24.63144 -76.95799 32051 ft 421 kts 306°
2026-05-03 21:34 24.67030 -77.00597 32055 ft 421 kts 306°
2026-05-03 21:34 24.70924 -77.05405 32052 ft 421 kts 306°
2026-05-03 21:35 24.74823 -77.10215 32045 ft 421 kts 306°
2026-05-03 21:35 24.78708 -77.15023 32061 ft 421 kts 305°
2026-05-03 21:36 24.82593 -77.19837 32049 ft 420 kts 305°
2026-05-03 21:36 24.86453 -77.24623 32053 ft 420 kts 305°
2026-05-03 21:37 24.90340 -77.29441 32052 ft 420 kts 305°
2026-05-03 21:37 24.94212 -77.34249 32055 ft 420 kts 305°
2026-05-03 21:38 24.98086 -77.39068 32057 ft 420 kts 305°
2026-05-03 21:38 25.01872 -77.43942 32055 ft 415 kts 298°
2026-05-03 21:39 25.04390 -77.49532 32055 ft 405 kts 287°
2026-05-03 21:39 25.06536 -77.55279 32054 ft 406 kts 288°
2026-05-03 21:40 25.08691 -77.61032 32062 ft 406 kts 288°
2026-05-03 21:40 25.10848 -77.66793 32059 ft 405 kts 288°
2026-05-03 21:41 25.12987 -77.72520 31900 ft 400 kts 287°
2026-05-03 21:41 25.14025 -77.75282 31658 ft 390 kts 287°
2026-05-03 21:41 25.15053 -77.78014 31423 ft 381 kts 287°
2026-05-03 21:42 25.16057 -77.80693 31193 ft 376 kts 287°
2026-05-03 21:42 25.17048 -77.83360 30951 ft 374 kts 286°
2026-05-03 21:42 25.18032 -77.86017 30718 ft 373 kts 286°
2026-05-03 21:42 25.19010 -77.88661 30487 ft 372 kts 286°
2026-05-03 21:43 25.19984 -77.91296 30253 ft 371 kts 286°
2026-05-03 21:43 25.20958 -77.93921 30018 ft 370 kts 286°
2026-05-03 21:43 25.21933 -77.96547 29758 ft 369 kts 286°
2026-05-03 21:43 25.22901 -77.99159 29489 ft 367 kts 286°
2026-05-03 21:44 25.23866 -78.01770 29220 ft 365 kts 286°
2026-05-03 21:44 25.24822 -78.04357 28955 ft 364 kts 287°
2026-05-03 21:44 25.25780 -78.06944 28695 ft 363 kts 287°
2026-05-03 21:44 25.26732 -78.09519 28430 ft 362 kts 287°
2026-05-03 21:45 25.27684 -78.12095 28164 ft 360 kts 287°
2026-05-03 21:45 25.28626 -78.14651 27937 ft 359 kts 287°
2026-05-03 21:45 25.29563 -78.17200 27672 ft 358 kts 287°
2026-05-03 21:45 25.30506 -78.19746 27422 ft 357 kts 287°
2026-05-03 21:46 25.31485 -78.22256 27179 ft 357 kts 288°
2026-05-03 21:46 25.32496 -78.24756 26935 ft 356 kts 289°
2026-05-03 21:46 25.33518 -78.27253 26687 ft 355 kts 289°
2026-05-03 21:46 25.34529 -78.29732 26438 ft 353 kts 289°
2026-05-03 21:47 25.35519 -78.32176 26207 ft 352 kts 289°
2026-05-03 21:47 25.36518 -78.34649 25963 ft 351 kts 289°
2026-05-03 21:47 25.37508 -78.37113 25736 ft 350 kts 289°
2026-05-03 21:47 25.38492 -78.39572 25502 ft 349 kts 289°
2026-05-03 21:48 25.39468 -78.42024 25275 ft 348 kts 289°
2026-05-03 21:48 25.40443 -78.44474 25044 ft 347 kts 289°
2026-05-03 21:48 25.41412 -78.46918 24818 ft 346 kts 288°
2026-05-03 21:48 25.42362 -78.49363 24593 ft 345 kts 288°
2026-05-03 21:49 25.43298 -78.51806 24366 ft 344 kts 288°
2026-05-03 21:49 25.44229 -78.54243 24145 ft 343 kts 288°
2026-05-03 21:49 25.45158 -78.56673 23924 ft 343 kts 288°
2026-05-03 21:49 25.46083 -78.59093 23708 ft 342 kts 288°
2026-05-03 21:50 25.47005 -78.61509 23468 ft 341 kts 288°
2026-05-03 21:50 25.47929 -78.63930 23201 ft 340 kts 288°
2026-05-03 21:50 25.48849 -78.66334 22948 ft 339 kts 289°
2026-05-03 21:50 25.49770 -78.68737 22706 ft 338 kts 289°
2026-05-03 21:51 25.50686 -78.71127 22438 ft 337 kts 289°
2026-05-03 21:51 25.51597 -78.73502 22212 ft 335 kts 288°
2026-05-03 21:51 25.52501 -78.75856 21833 ft 331 kts 288°
2026-05-03 21:51 25.53394 -78.78193 21406 ft 329 kts 288°
2026-05-03 21:52 25.54281 -78.80520 20969 ft 327 kts 288°
2026-05-03 21:52 25.55163 -78.82840 20548 ft 325 kts 288°
2026-05-03 21:52 25.56038 -78.85137 20115 ft 324 kts 289°
2026-05-03 21:52 25.56913 -78.87432 19698 ft 322 kts 289°
2026-05-03 21:53 25.57782 -78.89711 19284 ft 321 kts 289°
2026-05-03 21:53 25.58649 -78.91985 18863 ft 320 kts 289°
2026-05-03 21:53 25.59517 -78.94261 18437 ft 320 kts 289°
2026-05-03 21:53 25.60376 -78.96513 18072 ft 315 kts 289°
2026-05-03 21:54 25.61226 -78.98751 17566 ft 316 kts 289°
2026-05-03 21:54 25.62076 -79.00991 17107 ft 315 kts 289°
2026-05-03 21:54 25.62920 -79.03218 16710 ft 313 kts 289°
2026-05-03 21:54 25.63757 -79.05429 16302 ft 311 kts 289°
2026-05-03 21:55 25.64591 -79.07637 15902 ft 309 kts 289°
2026-05-03 21:55 25.65398 -79.09778 15603 ft 305 kts 289°
2026-05-03 21:55 25.66216 -79.11959 15122 ft 306 kts 289°
2026-05-03 21:55 25.67024 -79.14115 14821 ft 301 kts 289°
2026-05-03 21:56 25.67830 -79.16273 14388 ft 302 kts 289°
2026-05-03 21:56 25.68625 -79.18399 14002 ft 299 kts 289°
2026-05-03 21:56 25.69419 -79.20517 13540 ft 296 kts 289°
2026-05-03 21:56 25.70204 -79.22606 13149 ft 291 kts 289°
2026-05-03 21:57 25.70980 -79.24674 12771 ft 289 kts 289°
2026-05-03 21:57 25.71747 -79.26725 12404 ft 288 kts 289°
2026-05-03 21:57 25.72513 -79.28772 12024 ft 286 kts 289°
2026-05-03 21:57 25.73271 -79.30805 11668 ft 285 kts 289°
2026-05-03 21:58 25.74021 -79.32837 11308 ft 284 kts 289°
2026-05-03 21:58 25.74761 -79.34859 10950 ft 282 kts 289°
2026-05-03 21:58 25.75495 -79.36872 10589 ft 281 kts 289°
2026-05-03 21:58 25.76228 -79.38884 10258 ft 279 kts 290°
2026-05-03 21:59 25.76948 -79.40851 10177 ft 275 kts 290°
2026-05-03 21:59 25.77667 -79.42813 10064 ft 275 kts 290°
2026-05-03 21:59 25.78390 -79.44784 9871 ft 277 kts 289°
2026-05-03 21:59 25.79117 -79.46775 9429 ft 279 kts 289°
2026-05-03 22:00 25.79843 -79.48763 9036 ft 278 kts 289°
2026-05-03 22:00 25.80565 -79.50741 8656 ft 276 kts 289°
2026-05-03 22:00 25.81289 -79.52719 8277 ft 276 kts 290°
2026-05-03 22:00 25.82008 -79.54687 7898 ft 275 kts 289°
2026-05-03 22:01 25.82716 -79.56630 7527 ft 275 kts 290°
2026-05-03 22:01 25.83425 -79.58573 7272 ft 267 kts 290°
2026-05-03 22:01 25.84111 -79.60444 7026 ft 258 kts 290°
2026-05-03 22:01 25.84794 -79.62272 6643 ft 256 kts 290°
2026-05-03 22:02 25.85483 -79.64090 6215 ft 255 kts 290°
2026-05-03 22:02 25.86196 -79.65880 5992 ft 252 kts 292°
2026-05-03 22:02 25.86956 -79.67660 5997 ft 256 kts 293°
2026-05-03 22:02 25.87732 -79.69437 5998 ft 257 kts 294°
2026-05-03 22:03 25.88512 -79.71217 5998 ft 257 kts 294°
2026-05-03 22:03 25.89291 -79.73004 5992 ft 257 kts 293°
2026-05-03 22:03 25.90061 -79.74787 6000 ft 255 kts 293°
2026-05-03 22:03 25.90820 -79.76551 5998 ft 254 kts 293°
2026-05-03 22:04 25.91578 -79.78321 5998 ft 253 kts 293°
2026-05-03 22:04 25.92334 -79.80096 5999 ft 253 kts 292°
2026-05-03 22:04 25.93083 -79.81856 5998 ft 252 kts 292°
2026-05-03 22:04 25.93833 -79.83619 5998 ft 252 kts 292°
2026-05-03 22:05 25.94581 -79.85379 5998 ft 252 kts 292°
2026-05-03 22:05 25.95331 -79.87142 5993 ft 253 kts 292°
2026-05-03 22:05 25.96084 -79.88912 5994 ft 253 kts 292°
2026-05-03 22:05 25.96828 -79.90656 5995 ft 253 kts 292°
2026-05-03 22:06 25.97590 -79.92447 5996 ft 253 kts 292°
2026-05-03 22:06 25.98343 -79.94217 5993 ft 253 kts 293°
2026-05-03 22:06 25.99280 -79.95874 5993 ft 255 kts 307°
2026-05-03 22:06 26.00473 -79.97349 5994 ft 257 kts 309°
2026-05-03 22:07 26.01672 -79.98821 6000 ft 257 kts 309°
2026-05-03 22:07 26.02857 -80.00278 6001 ft 257 kts 309°
2026-05-03 22:07 26.04045 -80.01743 6000 ft 255 kts 309°
2026-05-03 22:07 26.05231 -80.03206 5994 ft 250 kts 308°
2026-05-03 22:08 26.06364 -80.04600 5994 ft 236 kts 309°
2026-05-03 22:08 26.07426 -80.05908 6018 ft 220 kts 308°
2026-05-03 22:08 26.08101 -80.06740 6004 ft 210 kts 308°
2026-05-03 22:08 26.09228 -80.08351 5993 ft 189 kts 296°
2026-05-03 22:09 26.09823 -80.09633 5984 ft 185 kts 293°
2026-05-03 22:09 26.10387 -80.10919 5951 ft 185 kts 292°
2026-05-03 22:09 26.10944 -80.12204 5934 ft 183 kts 292°
2026-05-03 22:10 26.12045 -80.14752 5736 ft 183 kts 292°
2026-05-03 22:10 26.12587 -80.16014 5501 ft 181 kts 292°
2026-05-03 22:10 26.13139 -80.17292 5274 ft 184 kts 292°
2026-05-03 22:10 26.13700 -80.18587 5071 ft 187 kts 292°
2026-05-03 22:11 26.14253 -80.19895 4849 ft 186 kts 290°
2026-05-03 22:11 26.14521 -80.21279 4630 ft 183 kts 268°
2026-05-03 22:11 26.14424 -80.22695 4408 ft 184 kts 263°
2026-05-03 22:11 26.14277 -80.24103 4179 ft 183 kts 262°
2026-05-03 22:12 26.14133 -80.25498 4047 ft 181 kts 263°
2026-05-03 22:12 26.14018 -80.26900 3997 ft 182 kts 266°
2026-05-03 22:12 26.13977 -80.28309 4000 ft 183 kts 268°
2026-05-03 22:12 26.13938 -80.29717 3995 ft 181 kts 267°
2026-05-03 22:13 26.13909 -80.31120 4001 ft 182 kts 268°
2026-05-03 22:13 26.13873 -80.32536 4001 ft 183 kts 266°
2026-05-03 22:13 26.13843 -80.33951 4005 ft 182 kts 267°
2026-05-03 22:13 26.13814 -80.35352 4003 ft 181 kts 268°
2026-05-03 22:14 26.13787 -80.36741 4004 ft 182 kts 268°
2026-05-03 22:14 26.13750 -80.38155 4004 ft 183 kts 267°
2026-05-03 22:14 26.13703 -80.39579 4012 ft 184 kts 268°
2026-05-03 22:14 26.13644 -80.40995 4011 ft 182 kts 267°
2026-05-03 22:15 26.13499 -80.42376 4003 ft 182 kts 248°
2026-05-03 22:15 26.12666 -80.43419 4005 ft 187 kts 209°
2026-05-03 22:15 26.11387 -80.43650 4008 ft 192 kts 179°
2026-05-03 22:15 26.10054 -80.43434 4008 ft 195 kts 170°
2026-05-03 22:16 26.08811 -80.42828 4004 ft 199 kts 144°
2026-05-03 22:16 26.07978 -80.41598 4007 ft 203 kts 112°
2026-05-03 22:16 26.07783 -80.40044 3957 ft 206 kts 90°
2026-05-03 22:16 26.07787 -80.38455 3749 ft 204 kts 88°
2026-05-03 22:17 26.07789 -80.36859 3506 ft 211 kts 91°
2026-05-03 22:17 26.07783 -80.35191 3216 ft 216 kts 91°
2026-05-03 22:17 26.07776 -80.33540 2932 ft 208 kts 90°
2026-05-03 22:17 26.07770 -80.31962 2670 ft 202 kts 89°
2026-05-03 22:18 26.07763 -80.30421 2427 ft 196 kts 89°
2026-05-03 22:18 26.07758 -80.29425 2256 ft 194 kts 90°
2026-05-03 22:18 26.07749 -80.27458 1914 ft 190 kts 89°
2026-05-03 22:18 26.07742 -80.26001 1664 ft 186 kts 89°
2026-05-03 22:19 26.07735 -80.24633 1434 ft 167 kts 89°
2026-05-03 22:19 26.07729 -80.23376 1218 ft 159 kts 88°
2026-05-03 22:19 26.07722 -80.22560 1070 ft 155 kts 88°
2026-05-03 22:19 26.07711 -80.20994 852 ft 153 kts 88°
2026-05-03 22:20 26.07706 -80.20195 693 ft 153 kts 88°
2026-05-03 22:20 26.07698 -80.19029 464 ft 152 kts 88°
2026-05-03 22:20 26.07706 -80.17855 304 ft 152 kts 86°
2026-05-03 22:20 26.07697 -80.16677 87 ft 152 kts 87°
2026-05-03 22:21 26.07692 -80.15609 15 ft 106 kts 90°
2026-05-03 22:21 26.07686 -80.15118 15 ft 31 kts 91°
2026-05-03 22:21 26.07638 -80.14949 17 ft 16 kts 122°
2026-05-03 22:21 26.07610 -80.14899 17 ft 5 kts 121°
2026-05-03 22:22 26.07598 -80.14877 17 ft 0 kts 121°
2026-05-03 22:22 26.07596 -80.14872 17 ft 2 kts 121°
2026-05-03 22:23 26.07586 -80.14858 17 ft 3 kts 135°
2026-05-03 22:23 26.07567 -80.14863 17 ft 3 kts 224°
2026-05-03 22:23 26.07562 -80.14894 16 ft 6 kts 268°
2026-05-03 22:23 26.07561 -80.14961 16 ft 11 kts 270°
2026-05-03 22:24 26.07562 -80.15051 16 ft 12 kts 270°
2026-05-03 22:24 26.07563 -80.15149 16 ft 13 kts 270°
2026-05-03 22:24 26.07563 -80.15254 16 ft 14 kts 269°
2026-05-03 22:24 26.07497 -80.15300 16 ft 13 kts 182°
2026-05-03 22:25 26.07403 -80.15300 16 ft 14 kts 179°
2026-05-03 22:25 26.07303 -80.15300 16 ft 15 kts 181°
2026-05-03 22:25 26.07196 -80.15302 16 ft 16 kts 180°
2026-05-03 22:25 26.07083 -80.15302 16 ft 17 kts 180°
2026-05-03 22:26 26.06966 -80.15303 16 ft 15 kts 180°
2026-05-03 22:26 26.06879 -80.15304 16 ft 11 kts 180°
2026-05-03 22:26 26.06807 -80.15304 16 ft 11 kts 176°
2026-05-03 22:26 26.06769 -80.15263 17 ft 7 kts 102°
2026-05-03 22:27 26.06768 -80.15219 16 ft 0 kts 89°
2026-05-03 22:28 26.06768 -80.15218 16 ft 1 kts 89°
2026-05-03 22:28 26.06768 -80.15185 16 ft 8 kts 89°
2026-05-03 22:28 26.06768 -80.15094 16 ft 15 kts 91°
2026-05-03 22:29 26.06766 -80.14968 16 ft 17 kts 90°
2026-05-03 22:29 26.06767 -80.14832 16 ft 18 kts 90°
2026-05-03 22:29 26.06765 -80.14690 16 ft 19 kts 90°
2026-05-03 22:29 26.06765 -80.14546 16 ft 14 kts 88°
2026-05-03 22:30 26.06769 -80.14490 16 ft 7 kts 85°
2026-05-03 22:30 26.06773 -80.14432 16 ft 5 kts 91°
2026-05-03 22:30 26.06773 -80.14421 16 ft 2 kts 82°
2026-05-03 22:30 26.06789 -80.14398 17 ft 6 kts 42°
2026-05-03 22:31 26.06836 -80.14386 16 ft 7 kts
2026-05-03 22:31 26.06874 -80.14385 16 ft 5 kts
2026-05-03 22:31 26.06880 -80.14385 16 ft 0 kts
2026-05-03 22:32 26.06879 -80.14385 16 ft 0 kts